Hourly Weather Abergele

Today, 22 June, Tuesday

Time Temperature Precipitation Wind Pressure Humidity
00:00 +9°C° 0 mm 1 mps 758 mmHg 88%
01:00 +9°C° 0 mm 1 mps 759 mmHg 89%
02:00 +8°C° 0 mm 1 mps 759 mmHg 89%
03:00 +7°C° 0 mm 1 mps 759 mmHg 89%
04:00 +8°C° 0 mm 1 mps 759 mmHg 86%
05:00 +9°C° 0 mm 1 mps 759 mmHg 83%
06:00 +11°C° 0 mm 1 mps 759 mmHg 80%
07:00 +12°C° 0 mm 1 mps 759 mmHg 73%
08:00 +13°C° 0 mm 1 mps 760 mmHg 67%
09:00 +14°C° 0 mm 1 mps 760 mmHg 60%
10:00 +15°C° 0 mm 2 mps 760 mmHg 58%
11:00 +16°C° 0 mm 2 mps 760 mmHg 56%
12:00 +17°C° 0 mm 3 mps 760 mmHg 55%
13:00 +17°C° 0 mm 3 mps 760 mmHg 55%
14:00 +17°C° 0 mm 3 mps 760 mmHg 56%
15:00 +17°C° 0 mm 4 mps 760 mmHg 56%
16:00 +16°C° 0 mm 3 mps 760 mmHg 59%
17:00 +16°C° 0 mm 3 mps 760 mmHg 61%
18:00 +14°C° 0 mm 3 mps 760 mmHg 63%
19:00 +12°C° 0 mm 3 mps 760 mmHg 72%
20:00 +10°C° 0 mm 2 mps 761 mmHg 80%
21:00 +8°C° 0 mm 2 mps 761 mmHg 88%
22:00 +8°C° 0 mm 2 mps 761 mmHg 87%
23:00 +7°C° 0 mm 2 mps 761 mmHg 87%

Tomorrow, 23 June, Wednesday

Time Temperature Precipitation Wind Pressure Humidity
00:00 +7°C° 0 mm 2 mps 761 mmHg 86%
01:00 +7°C° 0 mm 2 mps 761 mmHg 85%
02:00 +7°C° 0 mm 2 mps 761 mmHg 84%
03:00 +7°C° 0 mm 2 mps 761 mmHg 83%
04:00 +8°C° 0 mm 2 mps 761 mmHg 81%
05:00 +9°C° 0 mm 2 mps 761 mmHg 78%
06:00 +10°C° 0 mm 2 mps 761 mmHg 76%
07:00 +12°C° 0.1 mm 2 mps 761 mmHg 75%
08:00 +12°C° 0.1 mm 2 mps 761 mmHg 75%
09:00 +13°C° 0.1 mm 2 mps 761 mmHg 74%
10:00 +14°C° 0 mm 2 mps 761 mmHg 72%
11:00 +14°C° 0 mm 2 mps 761 mmHg 70%
12:00 +15°C° 0 mm 2 mps 761 mmHg 68%
13:00 +15°C° 0 mm 2 mps 761 mmHg 70%
14:00 +15°C° 0 mm 2 mps 761 mmHg 72%
15:00 +15°C° 0 mm 2 mps 760 mmHg 73%
16:00 +15°C° 0 mm 2 mps 760 mmHg 77%
17:00 +15°C° 0 mm 2 mps 760 mmHg 80%
18:00 +14°C° 0 mm 3 mps 760 mmHg 83%
19:00 +14°C° 0 mm 2 mps 760 mmHg 86%
20:00 +13°C° 0 mm 2 mps 761 mmHg 89%
21:00 +13°C° 0 mm 2 mps 761 mmHg 92%
22:00 +13°C° 0 mm 2 mps 761 mmHg 93%
23:00 +13°C° 0 mm 2 mps 760 mmHg 93%

Day after tomorrow, 24 June, Thursday

Time Temperature Precipitation Wind Pressure Humidity
00:00 +13°C° 0 mm 2 mps 760 mmHg 94%
01:00 +13°C° 0.1 mm 2 mps 760 mmHg 94%
02:00 +13°C° 0.1 mm 2 mps 760 mmHg 94%
03:00 +13°C° 0.1 mm 2 mps 760 mmHg 94%
04:00 +13°C° 0.4 mm 2 mps 760 mmHg 95%
05:00 +13°C° 0.4 mm 2 mps 760 mmHg 96%
06:00 +13°C° 0.4 mm 2 mps 760 mmHg 97%
07:00 +13°C° 0.9 mm 1 mps 760 mmHg 97%
08:00 +13°C° 0.9 mm 1 mps 760 mmHg 98%
09:00 +14°C° 0.9 mm 1 mps 760 mmHg 98%
10:00 +14°C° 0.3 mm 1 mps 759 mmHg 96%
11:00 +15°C° 0.3 mm 1 mps 759 mmHg 95%
12:00 +16°C° 0.3 mm 1 mps 759 mmHg 93%
13:00 +16°C° 0.2 mm 1 mps 759 mmHg 93%
14:00 +16°C° 0.2 mm 1 mps 759 mmHg 92%
15:00 +18°C° 0.2 mm 1 mps 759 mmHg 92%
16:00 +18°C° 0.1 mm 1 mps 759 mmHg 92%
17:00 +18°C° 0.1 mm 1 mps 759 mmHg 92%
18:00 +18°C° 0.1 mm 1 mps 759 mmHg 92%
19:00 +16°C° 0 mm 1 mps 759 mmHg 94%
20:00 +15°C° 0 mm 1 mps 759 mmHg 95%
21:00 +15°C° 0 mm 2 mps 759 mmHg 97%
22:00 +14°C° 0 mm 2 mps 759 mmHg 97%
23:00 +14°C° 0 mm 2 mps 759 mmHg 97%

25 June, Friday

Time Temperature Precipitation Wind Pressure Humidity
00:00 +13°C° 0 mm 2 mps 759 mmHg 96%
01:00 +13°C° 0 mm 2 mps 758 mmHg 96%
02:00 +13°C° 0 mm 2 mps 758 mmHg 96%
03:00 +14°C° 0 mm 2 mps 758 mmHg 96%
04:00 +14°C° 0.3 mm 2 mps 758 mmHg 97%
05:00 +14°C° 0.3 mm 1 mps 758 mmHg 97%
06:00 +14°C° 0.3 mm 1 mps 758 mmHg 97%
07:00 +15°C° 0.1 mm 1 mps 758 mmHg 95%
08:00 +16°C° 0.1 mm 1 mps 758 mmHg 93%
09:00 +18°C° 0.1 mm 1 mps 758 mmHg 91%
10:00 +19°C° 0.2 mm 1 mps 758 mmHg 88%
11:00 +20°C° 0.2 mm 1 mps 758 mmHg 86%
12:00 +19°C° 0.2 mm 2 mps 758 mmHg 84%
13:00 +20°C° 0.2 mm 2 mps 758 mmHg 81%
14:00 +20°C° 0.2 mm 2 mps 758 mmHg 77%
15:00 +21°C° 0.2 mm 2 mps 758 mmHg 74%
16:00 +20°C° 0.1 mm 2 mps 758 mmHg 75%
17:00 +20°C° 0.1 mm 2 mps 758 mmHg 76%
18:00 +19°C° 0.1 mm 3 mps 758 mmHg 77%
19:00 +18°C° 0 mm 3 mps 758 mmHg 83%
20:00 +16°C° 0 mm 2 mps 758 mmHg 89%
21:00 +15°C° 0 mm 2 mps 758 mmHg 95%
22:00 +15°C° 0 mm 2 mps 758 mmHg 95%
23:00 +15°C° 0 mm 2 mps 758 mmHg 95%

26 June, Saturday

Time Temperature Precipitation Wind Pressure Humidity
00:00 +15°C° 0 mm 2 mps 758 mmHg 95%
01:00 +15°C° 0 mm 2 mps 758 mmHg 95%
02:00 +14°C° 0 mm 1 mps 758 mmHg 95%
03:00 +14°C° 0 mm 1 mps 758 mmHg 95%
04:00 +14°C° 0.2 mm 1 mps 758 mmHg 95%
05:00 +14°C° 0.2 mm 1 mps 758 mmHg 95%
06:00 +15°C° 0.2 mm 1 mps 758 mmHg 95%
07:00 +15°C° 0.3 mm 1 mps 758 mmHg 96%
08:00 +15°C° 0.3 mm 1 mps 758 mmHg 96%
09:00 +15°C° 0.3 mm 1 mps 757 mmHg 97%
10:00 +15°C° 0.5 mm 1 mps 757 mmHg 96%
11:00 +15°C° 0.5 mm 1 mps 757 mmHg 96%
12:00 +16°C° 0.5 mm 1 mps 757 mmHg 96%
13:00 +15°C° 0.1 mm 0 mps 757 mmHg 96%
14:00 +15°C° 0.1 mm 0 mps 757 mmHg 95%
15:00 +15°C° 0.1 mm 0 mps 757 mmHg 95%
16:00 +15°C° 0.7 mm 0 mps 756 mmHg 96%
17:00 +15°C° 0.7 mm 1 mps 756 mmHg 97%
18:00 +15°C° 0.7 mm 1 mps 756 mmHg 98%
19:00 +15°C° 0.5 mm 1 mps 756 mmHg 98%
20:00 +15°C° 0.5 mm 1 mps 755 mmHg 98%
21:00 +14°C° 0.5 mm 1 mps 755 mmHg 98%
22:00 +14°C° 0.1 mm 1 mps 755 mmHg 98%
23:00 +14°C° 0.1 mm 1 mps 755 mmHg 98%

27 June, Sunday

Time Temperature Precipitation Wind Pressure Humidity
00:00 +14°C° 0.1 mm 1 mps 754 mmHg 98%
01:00 +14°C° 0.3 mm 1 mps 754 mmHg 97%
02:00 +14°C° 0.3 mm 1 mps 754 mmHg 97%
03:00 +14°C° 0.3 mm 1 mps 753 mmHg 97%
04:00 +14°C° 0.3 mm 1 mps 753 mmHg 97%
05:00 +14°C° 0.3 mm 1 mps 753 mmHg 97%
06:00 +14°C° 0.3 mm 1 mps 752 mmHg 97%
07:00 +14°C° 1.5 mm 1 mps 752 mmHg 97%
08:00 +14°C° 1.5 mm 2 mps 752 mmHg 97%
09:00 +14°C° 1.5 mm 2 mps 752 mmHg 98%
10:00 +13°C° 0.7 mm 3 mps 752 mmHg 96%
11:00 +13°C° 0.7 mm 3 mps 752 mmHg 95%
12:00 +13°C° 0.7 mm 3 mps 753 mmHg 93%
13:00 +14°C° 0.1 mm 3 mps 752 mmHg 82%
14:00 +17°C° 0.1 mm 3 mps 752 mmHg 70%
15:00 +18°C° 0.1 mm 3 mps 752 mmHg 58%
16:00 +17°C° 0.1 mm 3 mps 752 mmHg 62%
17:00 +17°C° 0.1 mm 3 mps 752 mmHg 66%
18:00 +16°C° 0.1 mm 3 mps 752 mmHg 70%
19:00 +13°C° 0.1 mm 3 mps 752 mmHg 78%
20:00 +12°C° 0.1 mm 2 mps 752 mmHg 86%
21:00 +10°C° 0.1 mm 2 mps 753 mmHg 94%
22:00 +10°C° 0 mm 3 mps 753 mmHg 93%
23:00 +10°C° 0 mm 3 mps 753 mmHg 93%
Show more

We Need Your Consent

Meteoprog and our Service Providers may store and access personal data such as cookies, device identifiers or other similar technologies on your device and process such data to personalise content and ads, as well as provide social media features and to analyse the traffic.

  • Store and/or access information on your device

    Cookies, device identifiers or other information can be stored or accessed on your device for the purposes indicated above.

  • Personalised ads and content, ad and content measurement, audience insights, and products development

    Ads and content can be personalised based on a profile. More data can be added to better personalise ads and content. Ad and content performance can be measured. Insights about the audience who saw the ads and content can be derived. Such data can be used to develop or improve user’s experience, systems and software.

By clicking ‘I Agree’ you will allow the use of indicated cookies, device identifiers, web beacons or other similar technologies. Your settings can be changed in the browser on your device.

For certain purposes, legitimate interests may be relied on, rather than consent. You can read more about this in our Privacy and Cookie Policy.